Total_Precipitation_Accumulation
0.09 0.09 0.13 0.24 0.31 0.27 0.29 0.35 0.40 0.43 0.53 0.67 0.78 0.84 0.81 0.71 0.55 0.44 0.34 0.26 0.22 0.20 0.26 0.32 0.40 0.46 0.54 0.67 0.87 0.90 0.74 0.54 0.46 0.44 0.39 0.31 0.25 0.23 0.22 0.22 0.22 0.24 0.21 0.22
0.10 0.07 0.08 0.09 0.08 0.08 0.10 0.14 0.19 0.28 0.43 0.52 0.57 0.56 0.51 0.40 0.27 0.21 0.17 0.12 0.10 0.10 0.12 0.13 0.15 0.22 0.33 0.41 0.47 0.44 0.36 0.29 0.25 0.21 0.19 0.16 0.16 0.15 0.11 0.09 0.09 0.14 0.14 0.16
0.17 0.08 0.08 0.07 0.04 0.06 0.12 0.14 0.20 0.35 0.43 0.37 0.36 0.35 0.32 0.22 0.13 0.11 0.08 0.06 0.05 0.06 0.07 0.07 0.06 0.06 0.07 0.09 0.13 0.12 0.09 0.07 0.07 0.07 0.07 0.06 0.06 0.07 0.07 0.07 0.06 0.09 0.09 0.13
0.18 0.16 0.13 0.05 0.02 0.04 0.08 0.13 0.20 0.29 0.29 0.23 0.19 0.16 0.14 0.09 0.06 0.05 0.04 0.02 0.02 0.03 0.04 0.04 0.05 0.04 0.03 0.03 0.03 0.03 0.02 0.02 0.02 0.03 0.04 0.05 0.06 0.05 0.04 0.03 0.03 0.07 0.08 0.15
0.19 0.22 0.12 0.03 0.02 0.02 0.03 0.04 0.06 0.08 0.08 0.07 0.05 0.05 0.04 0.03 0.03 0.03 0.03 0.01 0.01 0.02 0.03 0.04 0.04 0.04 0.03 0.02 0.02 0.02 0.02 0.02 0.02 0.01 0.02 0.02 0.02 0.02 0.01 0.01 0.03 0.06 0.09 0.11
0.17 0.19 0.13 0.05 0.03 0.03 0.02 0.03 0.02 0.02 0.02 0.02 0.02 0.04 0.03 0.02 0.01 0.03 0.03 0.02 0.02 0.03 0.04 0.04 0.04 0.04 0.03 0.02 0.01 0.01 0.02 0.02 0.02 0.02 0.02 0.02 0.02 0.01 0.01 0.02 0.02 0.03 0.06 0.07
0.15 0.17 0.09 0.05 0.04 0.04 0.03 0.02 0.01 0.01 0.01 0.02 0.02 0.03 0.02 0.01 0.01 0.02 0.05 0.05 0.04 0.04 0.04 0.03 0.03 0.03 0.03 0.02 0.01 0.01 0.02 0.03 0.02 0.02 0.02 0.03 0.04 0.03 0.03 0.03 0.02 0.02 0.04 0.04
0.11 0.14 0.07 0.02 0.02 0.03 0.02 0.01 0.01 0.01 0.01 0.02 0.03 0.03 0.02 0.02 0.02 0.02 0.04 0.06 0.05 0.05 0.04 0.04 0.04 0.04 0.03 0.02 0.02 0.02 0.03 0.03 0.02 0.02 0.02 0.04 0.07 0.05 0.03 0.03 0.02 0.03 0.04 0.04
0.07 0.05 0.03 0.02 0.02 0.02 0.01 0.01 0.01 0.00 0.01 0.01 0.01 0.02 0.03 0.02 0.02 0.02 0.04 0.04 0.04 0.04 0.04 0.04 0.05 0.05 0.05 0.05 0.05 0.04 0.03 0.03 0.03 0.03 0.04 0.05 0.05 0.05 0.05 0.04 0.03 0.04 0.04 0.05
0.05 0.02 0.02 0.02 0.02 0.01 0.01 0.01 0.01 0.00 0.00 0.01 0.01 0.02 0.02 0.01 0.02 0.03 0.04 0.03 0.03 0.03 0.04 0.05 0.06 0.06 0.06 0.06 0.05 0.04 0.03 0.03 0.03 0.03 0.04 0.04 0.04 0.04 0.04 0.04 0.04 0.05 0.05 0.06
0.04 0.02 0.02 0.02 0.01 0.01 0.00 0.00 0.00 0.00 0.00 0.01 0.01 0.02 0.02 0.02 0.02 0.02 0.03 0.02 0.03 0.03 0.03 0.04 0.05 0.04 0.03 0.03 0.03 0.03 0.02 0.02 0.02 0.02 0.03 0.04 0.04 0.04 0.04 0.03 0.04 0.04 0.05 0.06
0.02 0.02 0.02 0.02 0.01 0.01 0.01 0.01 0.00 0.00 0.01 0.01 0.01 0.02 0.03 0.03 0.03 0.02 0.02 0.02 0.02 0.02 0.03 0.03 0.03 0.02 0.02 0.03 0.03 0.03 0.02 0.02 0.02 0.02 0.03 0.04 0.05 0.05 0.04 0.04 0.04 0.04 0.04 0.04
0.02 0.01 0.01 0.01 0.01 0.01 0.01 0.01 0.01 0.00 0.00 0.00 0.01 0.01 0.01 0.02 0.02 0.02 0.02 0.02 0.02 0.02 0.03 0.03 0.04 0.04 0.04 0.04 0.03 0.03 0.02 0.02 0.02 0.02 0.03 0.03 0.04 0.06 0.07 0.06 0.04 0.04 0.04 0.04
0.01 0.01 0.01 0.01 0.00 0.01 0.01 0.01 0.01 0.01 0.00 0.00 0.00 0.01 0.01 0.03 0.03 0.02 0.02 0.02 0.03 0.03 0.03 0.03 0.04 0.04 0.03 0.03 0.02 0.03 0.03 0.02 0.02 0.03 0.03 0.04 0.04 0.05 0.06 0.08 0.09 0.08 0.06 0.05
0.01 0.00 0.00 0.00 0.00 0.00 0.00 0.00 0.00 0.00 0.00 0.00 0.01 0.01 0.02 0.03 0.03 0.02 0.02 0.02 0.02 0.02 0.02 0.02 0.02 0.02 0.01 0.02 0.02 0.02 0.03 0.02 0.03 0.04 0.04 0.04 0.04 0.05 0.06 0.06 0.07 0.08 0.09 0.08
0.01 0.00 0.00 0.00 0.00 0.00 0.00 0.01 0.00 0.00 0.00 0.00 0.01 0.01 0.03 0.04 0.03 0.02 0.02 0.02 0.01 0.01 0.01 0.01 0.01 0.01 0.01 0.01 0.02 0.03 0.03 0.04 0.04 0.04 0.05 0.05 0.05 0.05 0.06 0.06 0.06 0.07 0.08 0.10
0.01 0.01 0.01 0.01 0.01 0.01 0.00 0.00 0.01 0.00 0.00 0.01 0.01 0.02 0.05 0.07 0.04 0.01 0.01 0.02 0.02 0.02 0.01 0.01 0.01 0.01 0.01 0.01 0.01 0.02 0.03 0.03 0.03 0.04 0.04 0.05 0.06 0.06 0.07 0.07 0.07 0.08 0.08 0.10
0.02 0.01 0.01 0.01 0.01 0.01 0.01 0.00 0.00 0.01 0.00 0.00 0.01 0.02 0.06 0.08 0.05 0.02 0.02 0.02 0.02 0.01 0.01 0.01 0.01 0.01 0.01 0.01 0.01 0.02 0.03 0.03 0.03 0.04 0.04 0.05 0.06 0.07 0.08 0.08 0.08 0.09 0.09 0.10
0.01 0.01 0.01 0.01 0.01 0.01 0.01 0.01 0.01 0.01 0.01 0.01 0.01 0.02 0.06 0.07 0.05 0.03 0.02 0.02 0.02 0.01 0.01 0.01 0.01 0.01 0.02 0.01 0.02 0.02 0.03 0.03 0.04 0.05 0.06 0.07 0.09 0.10 0.09 0.09 0.10 0.10 0.11 0.11
0.02 0.02 0.02 0.02 0.02 0.01 0.01 0.01 0.01 0.02 0.01 0.01 0.01 0.02 0.04 0.06 0.06 0.04 0.03 0.02 0.02 0.02 0.01 0.01 0.01 0.01 0.02 0.02 0.02 0.02 0.02 0.03 0.04 0.05 0.06 0.08 0.10 0.10 0.10 0.10 0.11 0.12 0.12 0.12
0.03 0.03 0.03 0.03 0.03 0.02 0.02 0.02 0.02 0.02 0.02 0.03 0.04 0.04 0.06 0.07 0.07 0.06 0.05 0.04 0.03 0.03 0.02 0.02 0.02 0.01 0.01 0.02 0.03 0.03 0.04 0.04 0.05 0.06 0.07 0.09 0.11 0.11 0.12 0.12 0.11 0.12 0.13 0.14
0.04 0.04 0.03 0.03 0.03 0.03 0.03 0.02 0.02 0.02 0.02 0.02 0.03 0.05 0.07 0.09 0.09 0.07 0.06 0.05 0.04 0.04 0.03 0.02 0.02 0.02 0.03 0.04 0.04 0.05 0.05 0.06 0.06 0.07 0.08 0.10 0.12 0.14 0.14 0.15 0.15 0.14 0.14 0.16
0.04 0.03 0.03 0.02 0.02 0.02 0.02 0.02 0.03 0.03 0.03 0.03 0.03 0.03 0.04 0.05 0.05 0.05 0.05 0.05 0.05 0.05 0.04 0.03 0.03 0.04 0.05 0.04 0.04 0.04 0.05 0.06 0.06 0.07 0.08 0.10 0.13 0.14 0.15 0.15 0.16 0.16 0.16 0.16
0.04 0.03 0.03 0.02 0.02 0.02 0.02 0.02 0.02 0.03 0.03 0.03 0.04 0.04 0.04 0.05 0.05 0.05 0.05 0.07 0.07 0.07 0.06 0.05 0.05 0.07 0.07 0.05 0.04 0.05 0.05 0.06 0.07 0.07 0.08 0.09 0.10 0.12 0.14 0.14 0.14 0.15 0.17 0.18
0.05 0.04 0.04 0.04 0.04 0.03 0.03 0.02 0.03 0.03 0.03 0.04 0.04 0.04 0.06 0.07 0.08 0.08 0.09 0.09 0.10 0.11 0.10 0.10 0.10 0.10 0.10 0.08 0.08 0.07 0.06 0.06 0.07 0.08 0.09 0.10 0.11 0.13 0.15 0.17 0.17 0.17 0.18 0.19
0.05 0.05 0.05 0.04 0.04 0.05 0.05 0.06 0.05 0.05 0.05 0.06 0.06 0.06 0.06 0.06 0.07 0.08 0.09 0.10 0.11 0.13 0.13 0.14 0.13 0.13 0.12 0.13 0.13 0.12 0.11 0.11 0.11 0.12 0.13 0.14 0.15 0.16 0.18 0.19 0.20 0.20 0.21 0.23
0.06 0.06 0.06 0.05 0.05 0.05 0.06 0.07 0.08 0.09 0.10 0.10 0.10 0.08 0.08 0.08 0.09 0.09 0.09 0.11 0.11 0.12 0.13 0.15 0.16 0.16 0.16 0.17 0.18 0.18 0.18 0.18 0.19 0.19 0.20 0.21 0.22 0.22 0.22 0.23 0.24 0.24 0.25 0.26